Regional Weather Roundup
Issued by NWS

Home | Current Version | Previous Version | Text Only | Print | Product List | Glossary On
Versions: 1 2 3 4 5 6 7 8 9 10 11 12 13 14 15 16 17 18 19 20 21 22 23 24 25 26 27 28 29 30 31 32 33 34 35 36 37 38 39 40 41 42 43 44 45 46 47 48 49 50
538
ASUS44 KLIX 151210
RWRLA
LOUISIANA WEATHER ROUNDUP
NATIONAL WEATHER SERVICE NEW ORLEANS LA
700 AM CDT TUE APR 15 2014

NOTE: "FAIR" INDICATES FEW OR NO CLOUDS BELOW 12,000 FEET WITH NO
      SIGNIFICANT WEATHER AND/OR OBSTRUCTIONS TO VISIBILITY.
      SKY/WX - SKY CONDITION AND SIGNIFICANT WEATHER.
      TMP - AIR TEMPERATURE.    DP   - DEWPOINT TEMPERATURE.
      RH  - RELATIVE HUMIDITY.  PRES - PRESSURE.
      HX  - HEAT INDEX.         WCI  - WIND CHILL INDEX.

*  THESE STATIONS ARE NOT NWS OR FAA STATIONS AND ARE NOT UNDER
   NWS QUALITY CONTROL.

LAZ040-048-061>063-065-066-069-151300-
SOUTHEAST LOUISIANA

CITY           SKY/WX    TMP DP  RH WIND       PRES   REMARKS
N.O. AUDUBON     N/A     50  45  81 MISG        N/A
6HR MIN TEMP:  50; 6HR MAX TEMP:  58; 6HR PCP:  0.18;

N.O. INTL ARPT CLOUDY    48  41  76 N21G30    30.04R
6HR MIN TEMP:  48; 6HR MAX TEMP:  56; 6HR PCP:  0.14;

N.O. LAKEFRONT CLOUDY    50  44  80 N32G40    30.04R
6HR MIN TEMP:  50; 6HR MAX TEMP:  59; 6HR PCP:  0.32;

N.O. DOWNTOWN* CLOUDY    50  41  71 N10G26    30.03R
6HR MIN TEMP:  50; 6HR MAX TEMP:  57; 6HR PCP:  0.25;

SLIDELL        CLOUDY    47  39  74 N12G28    30.02R
6HR MIN TEMP:  47; 6HR MAX TEMP:  52; 6HR PCP:  0.29;

BATON ROUGE    CLOUDY    45  34  65 NW14G24   30.11R
6HR MIN TEMP:  45; 6HR MAX TEMP:  51;

BOOTHVILLE     CLOUDY    54  48  80 NW24G36   29.98R
6HR MIN TEMP:  54; 6HR MAX TEMP:  68;

BELLE CHASSE   LGT RAIN  50  42  74 N16G26    30.01R
6HR MIN TEMP:  50; 6HR MAX TEMP:  59;

BOGALUSA*        N/A     46  42  84 N10G23    30.06R
6HR MIN TEMP:  46; 6HR MAX TEMP:  54;

GALLIANO*      CLOUDY    49  45  84 NW20G35   30.02R
6HR MIN TEMP:  49; 6HR MAX TEMP:  61;

NEW ROADS*     CLOUDY    44  34  68 N18G24    30.13R
6HR MIN TEMP:  44; 6HR MAX TEMP:  49; 6HR PCP:  0.04;

GONZALES*      CLOUDY    45  37  73 NW14G26   30.09R
6HR MIN TEMP:  45; 6HR MAX TEMP:  52;

HAMMOND*       CLOUDY    46  39  76 N17G26    30.09R
HOUMA*         MOCLDY    48  41  76 N20G25    30.06R
PORT FOURCHON* CLOUDY    52  46  82 N26G33    30.03R

$$

LAZ041-044-053-054-151300-
SOUTHWEST LOUISIANA

CITY           SKY/WX    TMP DP  RH WIND       PRES   REMARKS
LAKE CHARLES   CLEAR     42  35  76 MISG      30.19R
6HR MIN TEMP:  42; 6HR MAX TEMP:  47;

LAFAYETTE      CLEAR     43  33  68 N16G25    30.13R
6HR MIN TEMP:  43; 6HR MAX TEMP:  49; 6HR PCP: TRACE;

PATTERSON      CLOUDY    46  37  71 N18G28      N/A
6HR MIN TEMP:  46; 6HR MAX TEMP:  52;

SALT POINT       N/A     49  40  71 N12G21    30.08R
6HR MIN TEMP:  49; 6HR MAX TEMP:  54;

NEW IBERIA     CLOUDY    44  34  67 N17G25    30.12R
6HR MIN TEMP:  44; 6HR MAX TEMP:  51;

CHENAULT AIRPK CLEAR     41  36  81 N12       30.20R

$$

LAZ027-028-151300-
CENTRAL LOUISIANA

CITY           SKY/WX    TMP DP  RH WIND       PRES   REMARKS
FORT POLK      CLEAR     38  34  85 N15       30.19R WCI  29
6HR MIN TEMP:  38; 6HR MAX TEMP:  45;

ALEXANDRIA INT CLEAR     39  34  82 N13       30.19R WCI  31
6HR MIN TEMP:  39; 6HR MAX TEMP:  46;

ALEXANDRIA     CLEAR     42  31  64 N8G20     30.18R
6HR MIN TEMP:  41; 6HR MAX TEMP:  46;


$$

LAZ001-002-151300-
NORTHWEST LOUISIANA

CITY           SKY/WX    TMP DP  RH WIND       PRES   REMARKS
SHREVEPORT     CLEAR     39  30  70 N8        30.25R WCI  33
6HR MIN TEMP:  39; 6HR MAX TEMP:  43;

BARKSDALE AFB  CLEAR     35  30  80 N6        30.26R WCI  30
6HR MIN TEMP:  35; 6HR MAX TEMP:  41;

DTN SHREVEPORT CLEAR     36  30  79 NW5       30.26R WCI  32
6HR MIN TEMP:  36; 6HR MAX TEMP:  41;


$$

LAZ014-016-151300-
NORTHEAST LOUISIANA

CITY           SKY/WX    TMP DP  RH WIND       PRES   REMARKS
MONROE         FAIR      39  31  72 N13       30.22R WCI  31
6HR MIN TEMP:  38; 6HR MAX TEMP:  45;

TALLULAH       CLOUDY    45  34  65 NW12G17   30.17R
6HR MIN TEMP:  45; 6HR MAX TEMP:  48;


$$




USA.gov is the U.S. government's official web portal to all federal, state and local government web resources and services.